Other Public Products
Issued by NWS Grand Forks, ND

Home | Current Version | Previous Version | Graphics & Text | Print | Product List | Glossary On
Versions: 1 2 3 4 5 6 7 8 9 10 11 12 13 14 15 16 17 18 19 20 21 22 23 24 25 26 27 28 29 30 31 32 33 34 35 36 37 38 39 40 41 42 43 44 45 46 47 48 49 50
000
FPUS83 KFGF 221931
OPUFGF
PRAIRIE TO PINES WEATHER ROUNDUP
NATIONAL WEATHER SERVICE EASTERN NORTH DAKOTA/GRAND FORKS ND
200 PM CDT SAT JUL 22 2017

 **SATELLITE DATA USED TO AUGMENT SKY COVER AT AUTOMATED STATIONS**
 *****  WEATHER ACROSS EASTERN NORTH DAKOTA  *****

CITY           SKY/WX    TMP DP  RH WIND       PRES   REMARKS
GRAND FORKS    FAIR      81  55  40 NW17G25   29.83S
GRAND FORKS AF FAIR      79  58  48 NW13      29.85S
GRAND CITY NWS NOT AVBL
BUXTON           N/A     80  61  53 W10         N/A
DEVILS LAKE    FAIR      76  56  49 W15       29.91S
FARGO          FAIR      85  54  34 NW15G24   29.85S
WAHPETON ARPT  FAIR      82  59  44 NW15      29.87S
$$

 *****  WEATHER ACROSS CENTRAL AND WESTERN NORTH DAKOTA  *****

CITY           SKY/WX    TMP DP  RH WIND       PRES   REMARKS
JAMESTOWN      FAIR      82  53  36 NW13      29.91S
BISMARCK       FAIR      88  50  27 NW18G26   29.93S
MINOT          PTSUNNY   81  51  35 NW23      29.93R
MINOT AFB      FAIR      77  51  39 NW18G29   29.92S
GARRISON         N/A     81  50  33 NW23G35   29.94S
WILLISTON      FAIR      81  49  32 NW22      30.01S
DICKINSON      FAIR      85  45  24 NW25G33   30.00S
HETTINGER      FAIR      86  42  21 NW20G28   30.05S
$$

 *****  OTHER OBSERVATIONS NORTHEAST NORTH DAKOTA  *****

CITY           SKY/WX    TMP DP  RH WIND       PRES   REMARKS
WALHALLA       NOT AVBL
LANGDON        FAIR      72  61  68 NW17G25   29.88S
CAVALIER       FAIR      73  57  56 W25G31    29.82S
GRAFTON        FAIR      77  59  53 W18G28    29.84F
CANDO          NOT AVBL
FORT TOTTEN      N/A     79  55  43 NW7       29.95S
ROLLA            N/A     70  57  64 NW22G28   29.92S
RUGBY          NOT AVBL
 ***** THE ABOVE OBSERVATIONS ARE NON NWS ARE NOT QUALITY
        CONTROLLED AND MAY MIS-REPORT RAIN FOR SNOW...
$$

 *****  OTHER OBSERVATIONS SOUTHEAST NORTH DAKOTA *****

CITY           SKY/WX    TMP DP  RH WIND       PRES   REMARKS
COOPERSTOWN    FAIR      79  55  44 NW17G24   29.91R
VALLEY CITY    FAIR      81  54  39 W13G22    29.92S
OAKES          NOT AVBL
GWINNER        CLEAR     84  59  42 NW13      29.90R
SHEYENNE NWR     N/A     84  59  42 NW12      29.95S
BUFFALO          N/A     80  49  34 E12         N/A
WYNDMERE       NOT AVBL
 ***** THE ABOVE OBSERVATIONS ARE NON NWS ARE NOT QUALITY
       CONTROLLED AND MAY MIS-REPORT RAIN FOR SNOW...
$$

  *****  WEATHER ACROSS NORTHERN MINNESOTA  *****

CITY           SKY/WX    TMP DP  RH WIND       PRES   REMARKS
FLAG ISLAND    FAIR      75  61  60 NW7       29.74S HAZE
WARROAD        FAIR      75  64  69 W17G25    29.78R
ROSEAU         FAIR      75  64  69 W14G21    29.79S
HALLOCK        FAIR      77  57  50 W20G26    29.80S
THF RVR FALLS  FAIR      77  56  48 W18G26    29.84
HALSTAD          N/A     79  55  44 NW18        N/A
FOSSTON        FAIR      75  54  46 W15       29.86R
BAUDETTE       FAIR      80  56  43 NW15G24   29.77S
WASKISH        FAIR      79  64  61 W10       29.80S
CROOKSTON      FAIR      79  55  44 NW20      29.84S
$$
  *****  WEATHER ACROSS CENTRAL AND WEST MINNESOTA  *****

CITY           SKY/WX    TMP DP  RH WIND       PRES   REMARKS
BEMIDJI        FAIR      79  57  47 W22       29.84S
PARK RAPIDS    FAIR      84  62  47 NW15G30   29.85S
WADENA         FAIR      81  64  57 NW15G22   29.86S
DETROIT LAKES  FAIR      81  59  47 NW14G22   29.88S
MOORHEAD       FAIR      82  54  36 NW16      29.86S
FERGUS FALLS   FAIR      81  66  61 N13G18    29.86S
ELBOW LAKE     FAIR      81  69  66 NW10G18   29.88S HAZE
MORRIS MN      FAIR      88  66  48 NW14      29.86S HX  90
STAPLES        FAIR      82  61  47 W16       29.85S
WHEATON        FAIR      84  66  54 NW13G20   29.89R
$$
  *****  WEATHER ELSEWHERE ACROSS MINNESOTA  *****

CITY           SKY/WX    TMP DP  RH WIND       PRES   REMARKS
DULUTH         FAIR      68  61  78 SE8       29.84S
INTRNTL FALLS  FAIR      79  61  53 NW12G20   29.78F
ELY            FAIR      77  63  61 W10       29.81S
CLOQUET        FAIR      75  64  69 E7        29.83S
BRAINERD       FAIR      83  64  52 W13       29.83S
HIBBING        PTSUNNY   79  63  57 W8        29.81F
ALEXANDRIA     FAIR      81  69  67 NW15      29.89S
SAINT CLOUD    FAIR      86  68  54 NW14      29.83S
MINNEAPOLIS    FAIR      87  67  51 NW12      29.81S HX  90
$$

  *****  WEATHER ACROSS SOUTH DAKOTA  *****

CITY           SKY/WX    TMP DP  RH WIND       PRES   REMARKS
SIOUX FALLS    CLOUDY    86  73  65 W7        29.92R HX  93
BROOKINGS      FAIR      82  70  66 W9G17     29.93S
WATERTOWN      FAIR      84  67  56 NW12      29.91F
HURON          FAIR      86  70  58 VRB7      29.92S HX  90
SISSETON         N/A     88  61  40 NW14      29.87S
ABERDEEN       FAIR      88  65  46 N9G16     29.91F HX  90
MITCHELL       FAIR      85  70  60 NW6       29.94R
PIERRE         FAIR      93  38  14 N12       29.95S
MOBRIDGE       FAIR      88  55  32 NW12      29.94S
RAPID CITY     FAIR      90  40  17 NE12G18   30.07F
$$

  *****  SOME WEATHER IN NEARBY STATES *****

CITY           SKY/WX    TMP DP  RH WIND       PRES   REMARKS
GLASGOW MT     FAIR      81  47  30 W12G21    30.06S
GREAT FALLS MT FAIR      82  30  15 SW7G18    30.14F
CHEYENNE WY    FAIR      86  46  24 E7        30.24F
SCOTTSBLUFF NE FAIR      89  56  32 E16       30.10F
OMAHA NE       FAIR      90  75  61 N12       29.85S HX 100
DES MOINES IA  PTSUNNY   88  75  65 N12       29.83S HX  97
DAVENPORT IA   PTSUNNY   82  73  74 W6        29.85S
CHICAGO IL     PTSUNNY   84  68  58 NW10      29.82F
EAU CLAIRE WI  FAIR      85  63  47 W6        29.81S
LA CROSSE WI   PTSUNNY   81  71  71 VRB3      29.82F
$$

  *****  SOME NATIONAL WEATHER *****

CITY           SKY/WX    TMP DP  RH WIND       PRES   REMARKS
LA GUARDIA NY  PTSUNNY   88  67  49 SE6       29.81F HX  91
RALEIGH NC     FAIR      99  71  40 W14G21    29.91F HX 107
ATLANTA GA     FAIR      91  73  55 SW7       29.99F HX  99
NEW ORLEANS LA TSTM      77  72  84 E10       30.01R
OKLAHOMA CITY  FAIR     101  62  27 VRB7      29.89F HX 102
ALBUQUERQUE NM FAIR      86  55  34 VRB5      30.15F
SALT LAKE CITY FAIR      93  50  23 NE9       30.11S HX  90
LOS ANGELES CA FAIR      76  66  71 W12       29.92S
BOISE ID       FAIR      86  41  20 NW10      30.12F
SEATTLE WA     FAIR      76  56  49 SW8       30.19S
$$

*** WEATHER ACROSS MANITOBA...SASKATCHEWAN AND ONTARIO ***
                ***ONTARIO***

CITY           SKY/WX    TMP DP  RH WIND       PRES   REMARKS
GERALDTON      MOSUNNY   73  48  40 E5        29.90F
THUNDER BAY    MOSUNNY   68  55  64 E17G24    29.85S
SIOUX LOOKOUT  TSTM      63  61  94 N3        29.83R
TORONTO        CLOUDY    73  63  68 E3        29.83F
BIG TROUT LK   SUNNY     70  46  43 SW8       29.94F
PICKLE LAKE    PTSUNNY   75  39  27 E8        29.88F
DRYDEN         CLOUDY    64  63  94 E10       29.81F
KENORA         PTSUNNY   70  63  78 SE8       29.77F
$$
                *** MANITOBA***

CITY           SKY/WX    TMP DP  RH WIND       PRES   REMARKS
BRANDON        LGT RAIN  64  59  82 W14G20    29.90R
DAUPHIN        CLOUDY    68  59  73 N12       29.89R
ISLAND LAKE    MOSUNNY   75  46  35 SE10      29.92S
PILOT MOUND      N/A     68  55  64 NW17G26     N/A
THE PAS        PTSUNNY   75  48  38 N9        29.95S
THOMPSON       MOSUNNY   77  39  25 E2        29.93S
WINNIPEG       CLOUDY    66  63  88 W6        29.80R
LYNN LAKE      SUNNY     77  41  27 SW7       29.93S
CHURCHILL      MOSUNNY   73  41  31 NE3       29.91S
GILLAM         MOSUNNY   73  48  40 NW7       29.94F
$$
                ***SASKATCHEWAN***

CITY           SKY/WX    TMP DP  RH WIND       PRES   REMARKS
ESTEVAN        PTSUNNY   75  55  50 NW17      29.99R
KINDERSLEY     PTSUNNY   75  55  50 W9        30.03S
LLOYDMINSTER   MOSUNNY   73  55  53 W5        30.01S
PRINCE ALBERT  MOSUNNY   70  52  52 SE6       30.01S
REGINA         PTSUNNY   75  52  43 NW22G29   30.01R
YORKTON        PTSUNNY   63  55  77 N10       29.98R


USA.gov is the U.S. government's official web portal to all federal, state and local government web resources and services.